Location: Unspecified
(43.4680°N, 87.1740°E)
Time: 21:18:00
(UTC+00:00)

Cosmos 1378 Rocket - Pass Details

Date: 17 April 2021
Orbit: 600 x 628 km, 82.5° (Epoch: 12 May)

Event Time Altitude Azimuth Distance (km) Brightness Sun altitude
Rises 22:39:16 0° 198° (SSW) 2,898 6.6 -8.5°
Reaches altitude 10° 22:41:32 10° 203° (SSW) 1,994 5.7 -8.1°
Maximum altitude 22:45:52 55° 281° (W) 753 3.7 -7.4°
Drops below altitude 10° 22:50:13 10° 360° (N) 1,995 6.5 -6.7°
Sets 22:52:29 0° 4° (N) 2,901 7.4 -6.3°
